Location: Chantarel
(45.1638°N, 1.7873°E)
Time: 13:37:44
(UTC+00:00)

COSMOS 2428 - Pass Details

Date: 03 March 2021
Orbit: 845 x 858 km, 70.9° (Epoch: 16 April)

Event Time Altitude Azimuth Distance (km) Brightness Sun altitude
Rises 20:59:59 0° 227° (SW) 3,395 6.0 -34.4°
Reaches altitude 10° 21:02:34 10° 235° (SW) 2,464 5.3 -34.8°
Enters shadow 21:07:08 38° 286° (WNW) 1,265 3.9 -35.5°
Exits shadow 21:13:52 - 16° (NNE) 2,714 5.5 -36.5°
Sets 21:15:50 0° 22° (NNE) 3,424 6.0 -36.8°
